Other Surface Observations
Issued by NWS Tucson, AZ

Home | Current Version | Previous Version | Text Only | Print | Product List | Glossary On
Versions: 1 2 3 4 5 6 7 8 9 10 11 12 13 14 15 16 17 18 19 20 21 22 23 24 25 26 27 28 29 30 31 32 33 34 35 36 37 38 39 40 41 42 43 44 45 46 47 48 49 50
000
SXUS55 KTWC 201715
OSOTWC

WEATHER ROUNDUP FOR SOUTHEAST ARIZONA
NATIONAL WEATHER SERVICE TUCSON AZ
1015 AM MST WED SEP 20 2017

AZZ504>506-514-201815-
LOCATION       SKY/WX    TMP DP  RH WIND       PRES   REMARKS
TUCSON         SUNNY     86  62  44 S14G21    29.98F
DAVIS-MONTHAN  SUNNY     86  60  42 S16       29.98S
CHILDRENS PARK N/A      N/A N/A  48 SE8               PIMA CO DEQ
ALVERNON/22ND  N/A       82 N/A N/A E7                PIMA CO DEQ
CHERRY/GLENN   N/A      N/A N/A N/A N/A               PIMA CO DEQ
TANGERINE      N/A       81 N/A N/A S12               PIMA CO DEQ
CONTL RANCH    N/A       82  60  47 SE9               PIMA CO DEQ
GRANT/1ST      N/A       82  59  45 SE6               PIMA CO DEQ
CRAYCROFT/22ND N/A       82  59  45 N/A               PIMA CO DEQ
GOLFLINKS/KOLB N/A       80  58  47 E4                PIMA CO DEQ
AJO/12TH       N/A       81  61  50 S7                PIMA CO DEQ
FAIRGROUNDS    N/A       80 N/A N/A E9                PIMA CO DEQ
SAGUARO        N/A       87  61  42 W3                *SABINO CYN
SAN CARLOS     N/A       82  41  23 SE2               *SAN CARLOS
GREEN VALLEY   N/A       80  63  56 S5                PIMA CO DEQ
HORSE CAMP CYN N/A       76  50  40 E4G10             *ARAVAIPA CYN
RINCON MTNS    N/A       63  49  61 SW4G12            *NR MANNING CAMP
$$

AZZ509>511-201815-
LOCATION       SKY/WX    TMP DP  RH WIND       PRES   REMARKS
SAFFORD        SUNNY     83  40  21 SE7       30.00S
STRAY HORSE    N/A       61  32  33 W9G18             *
TRAIL CABIN    N/A       72  42  34 W3                *N OF GRANVILLE
BLACK HILLS    NOT AVBL
DRY LAKE       N/A       67  45  45 S6G10             *NATANES MTNS
NOON CREEK     N/A       77  43  30 NE6G10            *PINALENO MTNS
COLUMBINE      N/A       52  39  62 SW10G17           *PINALENO MTNS
GUTHRIE        N/A       69  42  37 SW5               *SW OF GUTHRIE
$$

AZZ502-503-513-201815-
LOCATION       SKY/WX    TMP DP  RH WIND       PRES   REMARKS
NOGALES        MOSUNNY   82  62  50 S13G21    30.07S
SELLS          N/A       83  66  57 S10G17            *
SASABE         N/A       80  65  60 S12G18            *ALTAR VLY
HOPKINS        N/A       63  56  78 SW5G14            *SANTA RITA MTNS
CARR CYN       N/A       78  54  43 S3G10             *W OF HEREFORD
$$

AZZ507-508-512-201815-
LOCATION       SKY/WX    TMP DP  RH WIND       PRES   REMARKS
SIERRA VISTA   SUNNY     80  52  38 S15G22    30.12S
DOUGLAS        MOSUNNY   80  59  48 VRB6G16   30.09F
EMPIRE MTNS    NOT AVBL
MULESHOE RANCH N/A       76  55  49 S8G14             *PRESERVE
HEADQUARTERS   N/A       75  53  47 S6G13             *CHIRICAHUA MTNS
$$

.............................NOTES.............................
THIS IS AN AUTOMATED COLLECTIVE WITH MINIMAL QUALITY CONTROL.
PIMA CO DEQ SITES HAVE NONSTANDARD WIND SENSOR HEIGHTS.
PIMA CO DEQ SITES DO NOT REPORT WIND GUSTS.
* INDICATES WIND SENSORS LOCATED AT 20 FEET INSTEAD OF 33 FEET.
..............................KEY..............................
SKY/WX - SKY CONDITION/WEATHER
TMP    - TEMPERATURE IN FAHRENHEIT
DP     - DEWPOINT IN FAHRENHEIT
RH     - RELATIVE HUMIDITY IN PERCENT
WIND   - DIRECTION AND SPEED IN MILES PER HOUR (MPH)
VRB    - VARIABLE WIND DIRECTION
PRES   - MEAN SEA LEVEL PRESSURE IN INCHES OF MERCURY
         F - FALLING PRESSURE   R - RISING PRESSURE
         S - STEADY PRESSURE
VSB    - VISIBILITY IN MILES
HX     - HEAT INDEX IN FAHRENHEIT
WCI    - WIND CHILL INDEX IN FAHRENHEIT
N/A    - NOT AVAILABLE
AFB    - AIR FORCE BASE
         DAVIS-MONTHAN IS DAVIS-MONTHAN AIR FORCE BASE
CYN    - CANYON
MTNS   - MOUNTAINS
NCA    - NATIONAL CONSERVATION AREA
NR     - NEAR
VLY    - VALLEY
CONTL  - CONTINENTAL
PIMA CO DEQ - PIMA COUNTY DEPT OF ENVIRONMENTAL QUALITY



USA.gov is the U.S. government's official web portal to all federal, state and local government web resources and services.